Flight Information

DEPARTURE
PALM SPRINGS, CA
Elevation:
476
Runways:
13R/31L - 10000x150 - ASPH-G
13L/31R - 4952x75 - ASPH-G
Active PE Departure:
31L - 31R
Current PE ATIS:
G
Altimeter:
29.67
Remarks:
V F R DEPARTURES CONTACT CLEARANCE DELIVERY, ADVISE ON COURSE HEADING, ALTITUDE, AND IF FLIGHT FOLLOWING IS REQUESTED.
ATIS:
124.65 760-327-2770
Clearance Delivery:
128.35
Ground:
121.9
Tower:
119.7
DESTINATION
,
Elevation:
TPA:
1000 (est.)


6705.4 NM74° True-14° Var60° HDG

Flight Plan:
(click to file on line)

1. Type
2. Aircraft Identification
3. Aircraft Type / Special Equipment
4. True Airspeed
kts
5. Departure Airport
(ICAO code)
6. Arriving Airport
(ICAO code)
7. Cruising Altitude
ft
8. Alternate Airport
(ICAO code)
9. Route of Flight
10. Remarks


00:00:00 Departure ATIS: Destination ATIS:

Clearance Limit:
Route:
Altitude: Expect in minutes
Frequency:
Transponder: (7500 Hijack / 7600 Lost Comms / 7700 Emergency)


KPSP 251953Z 31016G21KT 10SM FEW060 13/M05 A2967 RMK AO2 WSHFT 1908 SLP048 T01331050
Time: 2021-01-25T19:53:00Z
1611607909
Winds: 310 @ 16 kts
Gusting:21 kts
Visibility: 10.0 sm
Clouds (AGL): FEW 6000
Temperature: 13.3 C
Dew Point: -5.0 C
Pressure: 29.66929 in Hgbr


Notes:

Data extracted from FAA Digital Chart Supplement. Effective: 0901Z Thursday, Dec 31, 2020 to 0901Z Thursday, Jan 28, 2021
Current ATIS data is provided courtisy of PilotEdge.